Lid_Strength_Index
2 3 3 3 3 3 3 3 3 3 3 3 3 3 3 3 3 3 3 3 3 3 3 2 2 1 4 10 9 6 -2 -1 2 4 6 5 7 8 9 8 7 8 7 6 6 6 6
2 3 3 3 3 3 3 3 3 3 3 3 3 3 3 3 3 3 3 3 3 3 3 2 2 1 7 12 7 6 7 7 6 6 7 5 7 7 7 8 8 7 7 7 6 6 6
2 2 2 3 3 3 3 3 3 3 4 4 4 3 3 3 3 3 3 4 4 3 3 2 1 2 9 9 7 6 7 8 8 7 10 6 6 8 6 8 6 7 9 8 7 7 7
1 2 2 2 2 3 3 3 3 4 4 4 4 4 4 4 3 3 4 4 4 3 3 2 1 5 11 7 6 5 6 6 8 9 9 6 6 5 7 6 7 9 9 12 8 7 6
1 1 1 2 2 2 3 3 3 3 4 4 4 4 4 4 4 4 5 5 4 2 2 2 7 8 10 4 7 5 5 7 9 9 8 4 7 6 7 9 11 10 14 13 10 7 8
-0 0 1 1 1 2 2 2 3 3 3 4 4 4 4 4 4 5 5 5 5 3 2 2 3 11 10 9 7 6 6 6 9 9 8 8 8 9 10 11 15 13 13 12 12 9 8
-0 0 0 1 1 2 2 2 2 2 2 3 3 3 4 4 5 5 7 9 9 10 7 11 11 10 9 7 6 7 7 7 10 10 13 10 11 11 10 9 10 10 12 12 10 8 9
-0 -0 0 0 1 1 2 2 2 2 2 2 2 3 3 4 5 6 9 10 9 8 10 7 7 8 7 7 8 7 7 9 10 13 11 12 12 10 9 10 9 11 12 12 10 8 10
0 1 1 1 1 1 1 2 2 2 2 2 2 3 3 4 5 8 10 8 7 7 11 9 8 8 8 7 8 8 8 9 11 12 12 12 10 8 8 10 11 11 12 12 12 10 9
1 1 1 1 1 1 1 1 2 2 2 2 2 3 4 5 7 9 9 7 7 7 14 12 11 8 8 7 9 6 8 9 10 10 10 12 10 9 9 10 10 14 9 9 11 12 15
1 1 1 1 1 1 1 1 1 2 2 2 2 3 4 5 8 8 8 7 7 10 19 11 11 7 8 9 11 10 8 9 10 10 10 11 10 10 11 10 8 10 8 9 10 12 14
1 1 0 0 0 1 1 1 2 2 2 2 2 3 4 7 9 7 6 6 8 14 17 11 10 10 10 11 11 10 10 9 9 11 11 11 9 10 10 8 7 7 9 10 11 12 17
1 1 1 1 1 1 1 1 1 2 2 2 3 4 5 5 7 7 6 8 13 16 11 11 12 12 12 12 12 12 12 13 13 15 16 13 12 11 9 11 9 10 12 16 17 18 18
1 1 1 1 1 1 1 2 2 2 3 3 4 5 6 5 6 6 7 9 16 12 12 10 10 12 12 12 13 12 13 13 14 13 15 14 14 11 10 11 12 11 12 15 19 19 17
1 1 1 1 1 1 2 2 2 3 3 4 5 8 8 6 5 7 8 13 13 12 9 10 10 14 13 13 13 13 14 13 12 12 14 15 14 11 9 8 9 12 13 12 15 16 16
1 1 1 2 1 1 1 2 2 2 3 4 7 9 7 6 5 7 9 12 11 8 8 10 13 12 13 13 14 14 14 12 12 11 12 12 14 13 12 11 9 11 10 14 14 19 20
2 1 1 2 2 1 1 2 2 3 4 5 9 8 5 6 7 8 11 11 9 7 8 10 12 12 12 12 13 14 13 11 11 12 11 13 14 15 14 14 13 11 12 12 13 15 17
2 2 1 1 2 1 1 2 3 4 5 6 9 9 5 6 10 12 11 9 8 9 9 9 10 10 11 11 13 14 13 11 10 11 12 12 14 15 15 14 13 11 11 12 14 16 15
2 2 2 1 1 1 1 2 3 4 5 7 10 12 6 6 12 12 10 9 8 8 9 10 10 10 10 12 13 12 12 10 9 10 12 12 15 17 16 15 15 15 13 12 13 13 16
1 2 2 1 1 1 1 2 3 4 4 7 10 10 7 8 10 11 12 11 10 6 9 8 9 10 11 12 12 11 11 8 9 11 4 8 15 15 16 15 14 14 12 11 12 14 14
1 1 2 2 1 1 1 2 3 4 5 7 9 9 8 11 10 10 10 10 10 11 8 9 10 10 12 14 13 12 10 9 8 6 11 12 14 15 14 14 13 13 12 11 12 13 13
1 1 1 2 1 1 1 2 3 4 5 8 9 9 9 10 9 11 11 11 10 9 9 10 11 8 9 13 12 12 12 9 11 10 11 13 14 16 15 13 13 13 11 11 11 11 12
1 2 1 2 2 0 1 2 3 3 5 7 7 8 8 10 10 11 10 10 9 8 8 7 8 9 9 9 7 7 10 10 9 9 11 14 14 15 14 13 12 14 12 11 11 11 10
1 2 1 2 2 1 1 2 2 3 5 7 7 7 9 10 9 10 9 8 8 8 9 7 7 9 7 6 7 8 9 10 10 10 11 14 15 16 15 14 17 12 10 9 10 9 8
2 1 1 1 2 2 1 2 2 2 4 7 7 7 9 11 8 8 8 8 8 8 8 8 6 6 6 8 10 12 12 10 10 9 12 13 14 16 15 17 14 12 10 10 11 10 8
2 1 1 1 2 2 1 2 2 2 3 7 8 7 7 9 9 7 8 7 10 10 9 8 6 5 7 10 10 14 14 13 13 11 10 11 14 13 17 17 16 13 9 7 8 12 7
2 2 2 2 2 2 2 2 2 2 3 5 7 7 8 9 7 8 9 9 7 8 10 9 8 8 8 11 12 13 13 11 14 14 15 13 13 15 16 16 14 11 8 7 13 11 8
2 2 2 2 2 2 2 1 2 2 2 5 6 6 7 9 8 6 5 7 7 8 11 9 9 9 9 12 12 13 14 13 14 14 14 13 14 15 14 16 16 8 8 11 9 7 7
2 2 2 2 2 2 2 1 2 2 2 4 7 5 5 8 8 5 3 3 4 5 8 8 9 9 8 11 11 11 13 12 13 16 12 14 12 13 12 12 9 8 8 6 6 8 7